Legend :    VFR   Marginal VFR   IFR   Intensive IFR   Very Intensive IFR
Visi :
Ceiling :
>= 8 km
>= 3000ft
5 to 8 km
1000 to 3000 ft
1500m to 5 km
500 to 1000 ft
800 to 1500m
200 to 500 ft
< 800m
< 200 ft
Symbols :   Thunderstorms  Fog  Heavy snow  Heavy precipitations  Wind > 20 kt
SIGMETs :     Misc.  Thunderstorms  Icing  Turbulence  Mountain Waves  Volcanic Ashes






- Airport Elevation : 876 ft
- IATA code : MBX


LJMB - Maribor

CURRENT METAR :
  • 280530Z VRB01KT 7000 OVC033 M00/M01 Q1022

EXPIRED METARs :
  • 280500Z VRB01KT 7000 OVC033 M00/M01 Q1022
  • 280300Z AUTO VRB01KT 7000 OVC025/// M01/M02 Q1023

TAF TAF LJMB
Valid from the 28 at 00:00 until the 29 at 00:00 UTC


272300Z 2800/2900 VRB02KT 6000 NSC
PROB40 2802/2808 0300 FZFG VV001


LOGIN :  

Disclaimer |     EN      FR      IT 



MET'MAP, your aeronautical weather chart ! - Copyright ORBIFLY December 2007 - Disclaimer


ORBIFLY MET'MAP TEAM :

Programming & Development : Alexandra Zaïnal
Original concept : Baudouin d'Aumeries
Technical & hardware support : Manuel Goepfert
Assistance : Marc-Olivier Méhu




SOURCES & CREDITS :

   NOAA